Regional Weather Roundup
Issued by NWS

Home | Current Version | Previous Version | Text Only | Print | Product List | Glossary On
Versions: 1 2 3 4 5 6 7 8 9 10 11 12 13 14 15 16 17 18 19 20 21 22 23 24 25 26 27 28 29 30 31 32 33 34 35 36 37 38 39 40 41 42 43 44 45 46 47 48 49 50
000
ASUS44 KLIX 280010
RWRLA
LOUISIANA WEATHER ROUNDUP
NATIONAL WEATHER SERVICE NEW ORLEANS LA
600 PM CST THU NOV 27 2014

NOTE: "FAIR" INDICATES FEW OR NO CLOUDS BELOW 12,000 FEET WITH NO
      SIGNIFICANT WEATHER AND/OR OBSTRUCTIONS TO VISIBILITY.
      SKY/WX - SKY CONDITION AND SIGNIFICANT WEATHER.
      TMP - AIR TEMPERATURE.    DP   - DEWPOINT TEMPERATURE.
      RH  - RELATIVE HUMIDITY.  PRES - PRESSURE.
      HX  - HEAT INDEX.         WCI  - WIND CHILL INDEX.

*  THESE STATIONS ARE NOT NWS OR FAA STATIONS AND ARE NOT UNDER
   NWS QUALITY CONTROL.

LAZ040-048-061>063-065-066-069-280100-
SOUTHEAST LOUISIANA

CITY           SKY/WX    TMP DP  RH WIND       PRES   REMARKS
N.O. AUDUBON     N/A     55  35  47 MISG        N/A
6HR MIN TEMP:  55; 6HR MAX TEMP:  60;

N.O. INTL ARPT CLEAR     54  35  48 N12       30.42R
6HR MIN TEMP:  54; 6HR MAX TEMP:  61;

N.O. LAKEFRONT CLEAR     57  37  47 N17       30.43R
6HR MIN TEMP:  57; 6HR MAX TEMP:  61;

N.O. DOWNTOWN* FAIR      57  32  38 N8        30.42R
6HR MIN TEMP:  55; 6HR MAX TEMP:  59;

SLIDELL        CLEAR     47  36  65 CALM      30.42R
6HR MIN TEMP:  47; 6HR MAX TEMP:  62;

BATON ROUGE    CLEAR     52  27  38 N3        30.43R
6HR MIN TEMP:  52; 6HR MAX TEMP:  62;

BOOTHVILLE     CLEAR     55  42  61 VRB3      30.40S
6HR MIN TEMP:  55; 6HR MAX TEMP:  58;

BELLE CHASSE   CLEAR     54  32  43 N6        30.41R
6HR MIN TEMP:  54; 6HR MAX TEMP:  61;

BOGALUSA*        N/A     46  35  63 N3        30.45R
6HR MIN TEMP:  46; 6HR MAX TEMP:  61;

NEW ROADS*     FAIR      49  32  52 N5        30.44R
6HR MIN TEMP:  49; 6HR MAX TEMP:  59;

GONZALES*      FAIR      54  32  43 CALM      30.42R
6HR MIN TEMP:  54; 6HR MAX TEMP:  62;

HAMMOND*       CLEAR     50  30  46 CALM      30.44S
HOUMA*         CLEAR     52  34  50 N6        30.41R
PORT FOURCHON* CLEAR     55  39  54 N8G14     30.44S

$$

LAZ041-044-053-054-280100-
SOUTHWEST LOUISIANA

CITY           SKY/WX    TMP DP  RH WIND       PRES   REMARKS
LAKE CHARLES   CLEAR     52  35  52 NE7       30.43R
6HR MIN TEMP:  52; 6HR MAX TEMP:  65;

LAFAYETTE      CLEAR     50  32  50 N5        30.44R
6HR MIN TEMP:  50; 6HR MAX TEMP:  62;

PATTERSON      CLEAR     52  34  50 N6          N/A
6HR MIN TEMP:  52; 6HR MAX TEMP:  64;

SALT POINT       N/A     59  36  42 CALM      30.41R
6HR MIN TEMP:  59; 6HR MAX TEMP:  69;

NEW IBERIA     CLEAR     52  35  52 N6        30.44R
6HR MIN TEMP:  51; 6HR MAX TEMP:  64;

CHENAULT AIRPK CLEAR     55  32  41 NE5       30.43S

$$

LAZ027-028-280100-
CENTRAL LOUISIANA

CITY           SKY/WX    TMP DP  RH WIND       PRES   REMARKS
FORT POLK      CLEAR     48  38  68 NE5       30.43S
6HR MIN TEMP:  48; 6HR MAX TEMP:  60;

ALEXANDRIA INT CLEAR     49  33  54 NE5       30.44R
6HR MIN TEMP:  49; 6HR MAX TEMP:  59;

ALEXANDRIA     CLEAR     44  34  67 CALM      30.46R
6HR MIN TEMP:  44; 6HR MAX TEMP:  60;


$$

LAZ001-002-280100-
NORTHWEST LOUISIANA

CITY           SKY/WX    TMP DP  RH WIND       PRES   REMARKS
SHREVEPORT     PTCLDY    49  31  49 N6        30.44S
6HR MIN TEMP:  47; 6HR MAX TEMP:  58;

BARKSDALE AFB  CLEAR     49  29  45 E3        30.45S
6HR MIN TEMP:  49; 6HR MAX TEMP:  58;

DTN SHREVEPORT CLEAR     48  30  49 CALM      30.45S
6HR MIN TEMP:  48; 6HR MAX TEMP:  57;


$$

LAZ014-016-280100-
NORTHEAST LOUISIANA

CITY           SKY/WX    TMP DP  RH WIND       PRES   REMARKS
MONROE         CLEAR     45  35  68 E3        30.48S
6HR MIN TEMP:  45; 6HR MAX TEMP:  54;

TALLULAH       CLEAR     40  31  70 NE7       30.48S
6HR MIN TEMP:  39; 6HR MAX TEMP:  51;


$$




USA.gov is the U.S. government's official web portal to all federal, state and local government web resources and services.